Hourly Weather Barlewiczki

Today, 19 April, Monday

Time Temperature Precipitation Wind Pressure Humidity
00:00 +7°C° 0.1 mm 2 mps 761 mmHg 93%
01:00 +7°C° 0.1 mm 2 mps 761 mmHg 92%
02:00 +7°C° 0 mm 2 mps 761 mmHg 93%
03:00 +6°C° 0 mm 2 mps 760 mmHg 94%
04:00 +6°C° 0 mm 2 mps 760 mmHg 95%
05:00 +7°C° 0 mm 2 mps 760 mmHg 91%
06:00 +9°C° 0 mm 3 mps 760 mmHg 88%
07:00 +10°C° 0 mm 3 mps 761 mmHg 84%
08:00 +11°C° 0.1 mm 3 mps 760 mmHg 78%
09:00 +13°C° 0.1 mm 3 mps 760 mmHg 72%
10:00 +16°C° 0.1 mm 3 mps 760 mmHg 66%
11:00 +16°C° 0.3 mm 3 mps 760 mmHg 62%
12:00 +15°C° 0.3 mm 4 mps 760 mmHg 58%
13:00 +17°C° 0.3 mm 4 mps 760 mmHg 54%
14:00 +16°C° 0.3 mm 3 mps 760 mmHg 58%
15:00 +16°C° 0.3 mm 3 mps 760 mmHg 61%
16:00 +14°C° 0.3 mm 3 mps 760 mmHg 64%
17:00 +13°C° 0.1 mm 3 mps 760 mmHg 68%
18:00 +11°C° 0.1 mm 3 mps 760 mmHg 72%
19:00 +10°C° 0.1 mm 2 mps 760 mmHg 76%
20:00 +10°C° 0 mm 2 mps 760 mmHg 77%
21:00 +10°C° 0 mm 2 mps 760 mmHg 78%
22:00 +9°C° 0 mm 2 mps 760 mmHg 79%
23:00 +9°C° 0 mm 2 mps 760 mmHg 79%

Tomorrow, 20 April, Tuesday

Time Temperature Precipitation Wind Pressure Humidity
00:00 +8°C° 0 mm 2 mps 760 mmHg 80%
01:00 +8°C° 0 mm 2 mps 760 mmHg 81%
02:00 +7°C° 0 mm 2 mps 760 mmHg 83%
03:00 +7°C° 0 mm 2 mps 759 mmHg 84%
04:00 +7°C° 0 mm 1 mps 759 mmHg 85%
05:00 +7°C° 0 mm 2 mps 759 mmHg 83%
06:00 +8°C° 0 mm 2 mps 759 mmHg 81%
07:00 +9°C° 0 mm 2 mps 759 mmHg 78%
08:00 +10°C° 0 mm 2 mps 759 mmHg 71%
09:00 +12°C° 0 mm 2 mps 759 mmHg 64%
10:00 +13°C° 0 mm 3 mps 758 mmHg 57%
11:00 +13°C° 0.1 mm 3 mps 758 mmHg 56%
12:00 +13°C° 0.1 mm 3 mps 758 mmHg 55%
13:00 +13°C° 0.1 mm 3 mps 758 mmHg 54%
14:00 +13°C° 0.2 mm 3 mps 757 mmHg 58%
15:00 +12°C° 0.2 mm 3 mps 757 mmHg 62%
16:00 +12°C° 0.2 mm 3 mps 757 mmHg 66%
17:00 +10°C° 0 mm 3 mps 757 mmHg 72%
18:00 +9°C° 0 mm 3 mps 757 mmHg 78%
19:00 +7°C° 0 mm 2 mps 757 mmHg 84%
20:00 +7°C° 0 mm 2 mps 756 mmHg 85%
21:00 +6°C° 0 mm 2 mps 756 mmHg 85%
22:00 +6°C° 0 mm 1 mps 756 mmHg 86%
23:00 +6°C° 0 mm 1 mps 756 mmHg 86%

Day after tomorrow, 21 April, Wednesday

Time Temperature Precipitation Wind Pressure Humidity
00:00 +6°C° 0 mm 1 mps 756 mmHg 86%
01:00 +5°C° 0 mm 1 mps 755 mmHg 87%
02:00 +5°C° 0 mm 1 mps 755 mmHg 87%
03:00 +5°C° 0 mm 1 mps 755 mmHg 87%
04:00 +5°C° 0 mm 1 mps 755 mmHg 87%
05:00 +6°C° 0 mm 1 mps 754 mmHg 82%
06:00 +8°C° 0 mm 1 mps 754 mmHg 78%
07:00 +9°C° 0 mm 1 mps 754 mmHg 73%
08:00 +10°C° 0 mm 1 mps 754 mmHg 68%
09:00 +12°C° 0 mm 2 mps 754 mmHg 63%
10:00 +13°C° 0 mm 2 mps 753 mmHg 57%
11:00 +13°C° 0.1 mm 2 mps 753 mmHg 56%
12:00 +14°C° 0.1 mm 2 mps 753 mmHg 54%
13:00 +14°C° 0.1 mm 2 mps 752 mmHg 53%
14:00 +14°C° 0.1 mm 2 mps 752 mmHg 54%
15:00 +14°C° 0.1 mm 2 mps 752 mmHg 55%
16:00 +13°C° 0.1 mm 3 mps 751 mmHg 55%
17:00 +11°C° 0.1 mm 3 mps 751 mmHg 62%
18:00 +10°C° 0.1 mm 4 mps 751 mmHg 69%
19:00 +7°C° 0.1 mm 4 mps 751 mmHg 75%
20:00 +6°C° 0.3 mm 4 mps 752 mmHg 78%
21:00 +5°C° 0.3 mm 4 mps 752 mmHg 80%
22:00 +4°C° 0.3 mm 3 mps 752 mmHg 83%
23:00 +3°C° 0 mm 4 mps 752 mmHg 81%

22 April, Thursday

Time Temperature Precipitation Wind Pressure Humidity
00:00 +2°C° 0 mm 5 mps 752 mmHg 80%
01:00 +1°C° 0 mm 6 mps 752 mmHg 79%
02:00 +1°C° 0 mm 6 mps 752 mmHg 80%
03:00 0°C° 0 mm 7 mps 752 mmHg 80%
04:00 0°C° 0 mm 7 mps 752 mmHg 80%
05:00 0°C° 0 mm 7 mps 752 mmHg 79%
06:00 +2°C° 0 mm 7 mps 752 mmHg 77%
07:00 +2°C° 0 mm 7 mps 752 mmHg 75%
08:00 +2°C° 0.1 mm 7 mps 752 mmHg 74%
09:00 +2°C° 0.1 mm 8 mps 752 mmHg 73%
10:00 +4°C° 0.1 mm 8 mps 753 mmHg 71%
11:00 +4°C° 0.3 mm 8 mps 753 mmHg 70%
12:00 +5°C° 0.3 mm 8 mps 753 mmHg 68%
13:00 +5°C° 0.3 mm 8 mps 753 mmHg 66%
14:00 +5°C° 0.2 mm 7 mps 753 mmHg 65%
15:00 +5°C° 0.2 mm 7 mps 753 mmHg 65%
16:00 +5°C° 0.2 mm 7 mps 753 mmHg 64%
17:00 +4°C° 0 mm 7 mps 753 mmHg 65%
18:00 +3°C° 0 mm 7 mps 753 mmHg 65%
19:00 +2°C° 0 mm 7 mps 754 mmHg 66%
20:00 +2°C° 0.1 mm 7 mps 754 mmHg 71%
21:00 +2°C° 0.1 mm 7 mps 754 mmHg 77%
22:00 0°C° 0.1 mm 7 mps 754 mmHg 82%
23:00 0°C° 0.1 mm 7 mps 754 mmHg 86%

23 April, Friday

Time Temperature Precipitation Wind Pressure Humidity
00:00 +1°C° 0.1 mm 6 mps 754 mmHg 91%
01:00 +1°C° 0.1 mm 6 mps 754 mmHg 95%
02:00 +1°C° 0.2 mm 6 mps 755 mmHg 95%
03:00 +1°C° 0.2 mm 6 mps 755 mmHg 95%
04:00 +1°C° 0.2 mm 6 mps 755 mmHg 95%
05:00 +1°C° 0.1 mm 6 mps 756 mmHg 95%
06:00 +1°C° 0.1 mm 6 mps 757 mmHg 95%
07:00 +1°C° 0.1 mm 5 mps 757 mmHg 95%
08:00 +3°C° 0.1 mm 6 mps 758 mmHg 83%
09:00 +4°C° 0.1 mm 6 mps 758 mmHg 71%
10:00 +5°C° 0.1 mm 6 mps 758 mmHg 58%
11:00 +7°C° 0 mm 6 mps 759 mmHg 51%
12:00 +8°C° 0 mm 5 mps 759 mmHg 44%
13:00 +9°C° 0 mm 5 mps 759 mmHg 37%
14:00 +8°C° 0.1 mm 5 mps 759 mmHg 45%
15:00 +8°C° 0.1 mm 4 mps 759 mmHg 53%
16:00 +7°C° 0.1 mm 4 mps 759 mmHg 61%
17:00 +7°C° 0.3 mm 3 mps 758 mmHg 69%
18:00 +4°C° 0.3 mm 3 mps 758 mmHg 77%
19:00 +4°C° 0.3 mm 2 mps 758 mmHg 86%
20:00 +3°C° 0.1 mm 2 mps 758 mmHg 86%
21:00 +3°C° 0.1 mm 2 mps 758 mmHg 87%
22:00 +3°C° 0.1 mm 2 mps 758 mmHg 88%
23:00 +1°C° 0 mm 3 mps 758 mmHg 88%

24 April, Saturday

Time Temperature Precipitation Wind Pressure Humidity
00:00 +1°C° 0 mm 3 mps 758 mmHg 88%
01:00 +1°C° 0 mm 3 mps 757 mmHg 88%
02:00 +1°C° 0 mm 3 mps 758 mmHg 89%
03:00 0°C° 0 mm 3 mps 758 mmHg 91%
04:00 0°C° 0 mm 3 mps 758 mmHg 93%
05:00 +1°C° 0 mm 3 mps 758 mmHg 87%
06:00 +3°C° 0 mm 2 mps 758 mmHg 82%
07:00 +4°C° 0 mm 2 mps 759 mmHg 77%
08:00 +5°C° 0.1 mm 2 mps 759 mmHg 69%
09:00 +6°C° 0.1 mm 2 mps 759 mmHg 62%
10:00 +7°C° 0.1 mm 2 mps 759 mmHg 54%
11:00 +8°C° 0.3 mm 2 mps 758 mmHg 55%
12:00 +8°C° 0.3 mm 2 mps 758 mmHg 57%
13:00 +8°C° 0.3 mm 2 mps 758 mmHg 58%
14:00 +7°C° 0.4 mm 3 mps 758 mmHg 64%
15:00 +5°C° 0.4 mm 3 mps 758 mmHg 69%
16:00 +4°C° 0.4 mm 4 mps 759 mmHg 74%
17:00 +3°C° 0.1 mm 3 mps 759 mmHg 76%
18:00 +3°C° 0.1 mm 2 mps 759 mmHg 77%
19:00 +3°C° 0.1 mm 1 mps 759 mmHg 79%
20:00 +3°C° 0 mm 1 mps 759 mmHg 80%
21:00 +1°C° 0 mm 2 mps 759 mmHg 82%
22:00 +1°C° 0 mm 2 mps 759 mmHg 84%
23:00 -1°C° 0 mm 2 mps 759 mmHg 84%
Show more